Location: La Chapelle
(48.3135°N, 1.3085°W)
Time: 00:25:41
(UTC+00:00)

Cosmos 1271 Rocket - Pass Details

Date: 03 March 2021
Orbit: 498 x 544 km, 81.2° (Epoch: 14 April)

Event Time Altitude Azimuth Distance (km) Brightness Sun altitude
Rises 18:28:39 0° 346° (NNW) 2,602 6.4 -6.8°
Reaches altitude 10° 18:30:47 10° 343° (NNW) 1,714 5.5 -7.1°
Maximum altitude 18:34:30 65° 262° (W) 556 3.2 -7.8°
Drops below altitude 10° 18:38:12 10° 180° (S) 1,708 5.4 -8.4°
Sets 18:40:20 0° 177° (S) 2,593 6.2 -8.7°
